www.pogodaiklimat.ru

Погода и климат >> Архив погоды >> Бразилия >> Риу-Гранди-ду-Сул >> Трамандаи


ПОГОДА в Трамандаи

  • Прогноз погоды в Трамандаи
  • Монитор погоды в Трамандаи

АРХИВ ПОГОДЫ в Трамандаи

Время (UTC), дата Ветер
(напр.,м/с)
 
Видим.   Явления Облачность Т
(С)
Тd
(С)
f
(%)
Тe
(С)
Тes
(С)
Комфортность P
(гПа)
Po
(гПа)
Тmin
(С)
Tmax
(С)
R
(мм)
R24
(мм)
S
(см)
16 17.06 штиль 0
{3}
н/о н/о +21.0 -25.9 3 +19 +19 1022.3 1021.8
17 17.06 штиль 0
{1}
н/о н/о +20.9 -26.0 3 +19 +19 1021.2 1020.7
18 17.06 штиль 0
{4}
н/о н/о +20.4 -26.3 3 +19 +19 1020.6 1020.1
19 17.06 СВ 1
{4}
н/о н/о +20.1 -26.6 3 +20 +20 1020.2 1019.7
20 17.06 СВ 1
{4}
н/о н/о +20.1 -26.5 3 +20 +20 1020.2 1019.7
21 17.06 штиль 0
{4}
н/о н/о +20.0 -26.6 3 +19 +19 1020.4 1019.9
22 17.06 штиль 0
{4}
н/о н/о +20.1 -26.5 3 +19 +19 1020.3 1019.8
23 17.06 СВ 2
{5}
н/о н/о +20.4 -26.4 3 +20 +20 1020.5 1020.0
00 18.06 СВ 3
{5}
н/о н/о +20.7 -26.2 3 +20 +20 1020.0 1019.5
01 18.06 СВ 2
{6}
н/о н/о +20.7 -26.1 3 +20 +20 1019.8 1019.3
02 18.06 СВ 3
{5}
н/о н/о +20.6 -26.2 3 +20 +20 1019.6 1019.1
03 18.06 СВ 4
{6}
н/о н/о +20.5 -26.3 3 +19 +19 1019.4 1018.9
04 18.06 СВ 3
{6}
н/о н/о +20.5 -26.3 3 +20 +20 1019.2 1018.7
05 18.06 СВ 3
{6}
н/о н/о +20.2 -26.5 3 +19 +19 1018.4 1017.9
06 18.06 СВ 3
{6}
н/о н/о +19.9 -26.7 3 +19 +19 1018.0 1017.5
07 18.06 СВ 3
{5}
н/о н/о +19.6 -26.9 3 +19 +19 1017.5 1017.0
08 18.06 СВ 2
{5}
н/о н/о +19.3 -27.1 3 +19 +19 1017.4 1016.9
09 18.06 СВ 1
{4}
н/о н/о +19.3 -27.1 3 +20 +20 1017.3 1016.8
10 18.06 штиль 0
{4}
н/о н/о +19.5 -27.0 3 +19 +19 1017.6 1017.1
11 18.06 СВ 2
{4}
н/о н/о +20.0 -26.7 3 +20 +20 1017.3 1016.8
12 18.06 СВ 1
{5}
н/о н/о +20.3 -26.4 3 +20 +20 1017.5 1017.0
13 18.06 СВ 1
{4}
н/о н/о +20.7 -26.1 3 +21 +21 комфорт 1017.6 1017.1
14 18.06 штиль 0
{4}
н/о н/о +21.6 -25.6 3 +19 +19 1017.3 1016.8
15 18.06 СВ 1
{3}
н/о н/о +23.3 -24.4 3 +20 +20 1016.3 1015.8
16 18.06 штиль 0
{4}
н/о н/о +22.1 -25.2 3 +19 +19 1015.5 1015.0
17 18.06 штиль 0
{3}
н/о н/о +23.6 -24.2 3 +20 +20 1014.7 1014.2
18 18.06 СВ 2
{3}
н/о н/о +22.5 -25.0 3 +20 +20 1014.1 1013.6
19 18.06 СВ 1
{4}
н/о н/о +21.8 -25.4 3 +19 +19 1013.8 1013.3
20 18.06 штиль 0
{3}
н/о н/о +21.2 -25.8 3 +19 +19 1013.9 1013.4
21 18.06 штиль 0 н/о н/о +21.1 -25.9 3 +19 +19 1014.2 1013.7
22 18.06 штиль 0
{3}
н/о н/о +21.0 -26.0 3 +19 +19 1014.4 1013.9
23 18.06 штиль 0
{2}
н/о н/о +21.9 -25.4 3 +19 +19 1014.7 1014.2
00 19.06 штиль 0
{2}
н/о н/о +21.2 -25.8 3 +19 +19 1014.6 1014.1
01 19.06 штиль 0 н/о н/о +21.0 -25.9 3 +19 +19 1014.6 1014.1
02 19.06 штиль 0 н/о н/о +21.1 -25.9 3 +19 +19 1014.4 1013.9
03 19.06 штиль 0 н/о н/о +21.0 -26.0 3 +19 +19 1014.1 1013.6
04 19.06 штиль 0 н/о н/о +20.4 -26.4 3 +19 +19 1014.0 1013.5
05 19.06 штиль 0 н/о н/о +20.0 -26.6 3 +19 +19 1013.6 1013.1
06 19.06 штиль 0 н/о н/о +18.9 -27.3 3 +18 +18 1013.3 1012.8
07 19.06 ЮЗ 1
{4}
н/о н/о +19.5 -27.0 3 +20 +20 1014.0 1013.5
08 19.06 штиль 0
{4}
н/о н/о +20.0 -26.6 3 +19 +19 1014.1 1013.6
09 19.06 штиль 0
{4}
н/о н/о +19.7 -26.9 3 +19 +19 1014.8 1014.3
10 19.06 штиль 0
{3}
н/о н/о +19.4 -27.1 3 +19 +19 1015.7 1015.2
11 19.06 ЮЗ 2
{6}
н/о н/о +17.2 -28.5 3 +18 +18 1017.1 1016.6 0.8
12 19.06 ЮЗ 1
{5}
н/о н/о +15.4 -29.8 3 +16 +16 1018.6 1018.0 3
13 19.06 штиль 0
{7}
н/о н/о +15.2 -29.9 3 +15 +15 1019.1 1018.5
14 19.06 штиль 0
{4}
н/о н/о +15.5 -29.7 3 +16 +16 1019.9 1019.3
15 19.06 штиль 0
{5}
н/о н/о +16.6 -28.9 3 +17 +17 1019.0 1018.5
16 19.06 штиль 0
{5}
н/о н/о +17.2 +17 +17 1018.4 1017.9
17 19.06 штиль 0
{4}
н/о н/о +18.5 -24.6 4 +18 +18 1017.3 1016.8
18 19.06 штиль 0
{4}
н/о н/о +18.7 +18 +18 1017.1 1016.6
19 19.06 штиль 0
{5}
н/о н/о +18.6 +18 +18 1016.8 1016.3
20 19.06 штиль 0
{3}
н/о н/о +17.2 +17 +17 1016.9 1016.4
21 19.06 штиль 0
{4}
н/о н/о +16.7 +17 +17 1017.0 1016.5
22 19.06 штиль 0
{4}
н/о н/о +16.3 +16 +16 1017.7 1017.2
23 19.06 штиль 0
{3}
н/о н/о +15.3 +16 +16 1018.6 1018.0
00 20.06 штиль 0
{3}
н/о н/о +15.8 +16 +16 1018.3 1017.8
01 20.06 З 1
{4}
н/о н/о +16.2 +18 +18 1019.2 1018.7
02 20.06 штиль 0
{5}
н/о н/о +15.8 +16 +16 1019.5 1019.0
03 20.06 штиль 0
{4}
н/о н/о +15.6 +16 +16 1019.8 1019.2
04 20.06 штиль 0
{3}
н/о н/о +15.2 +15 +15 1020.1 1019.5
05 20.06 штиль 0
{4}
н/о н/о +15.6 +16 +16 1019.8 1019.2
06 20.06 штиль 0
{4}
н/о н/о +15.1 +15 +15 1020.3 1019.7
07 20.06 штиль 0
{3}
н/о н/о +13.2 +14 +14 1020.8 1020.2
08 20.06 штиль 0 н/о н/о +12.8 +13 +13 1021.2 1020.6
09 20.06 штиль 0
{2}
н/о н/о +13.2 +14 +14 1022.0 1021.4
10 20.06 штиль 0
{2}
н/о н/о +13.0 +13 +13 1022.9 1022.3
11 20.06 штиль 0 н/о н/о +13.4 +14 +14 1023.8 1023.2
12 20.06 штиль 0
{4}
н/о н/о +14.8 +15 +15 1024.1 1023.5
13 20.06 З 1
{5}
н/о н/о +15.8 +17 +17 1024.8 1024.2
14 20.06 З 2
{5}
н/о н/о +17.0 +17 +17 1024.5 1023.9
15 20.06 З 2
{5}
н/о н/о +17.9 +19 +19 1024.2 1023.7
16 20.06 З 1
{4}
н/о н/о +18.8 +20 +20 1023.9 1023.4
17 20.06 штиль 0
{4}
н/о н/о +19.7 +19 +19 1023.5 1023.0
18 20.06 штиль 0
{4}
н/о н/о +19.3 +18 +18 1023.5 1023.0
19 20.06 штиль 0
{3}
н/о н/о +18.9 +18 +18 1023.9 1023.4
20 20.06 штиль 0 н/о н/о +17.4 +17 +17 1024.2 1023.7
21 20.06 штиль 0 н/о н/о +15.8 +16 +16 1024.5 1023.9
22 20.06 штиль 0 н/о н/о +14.7 +15 +15 1024.8 1024.2
23 20.06 штиль 0 н/о н/о +13.4 +14 +14 1025.2 1024.6
00 21.06 штиль 0 н/о н/о +13.0 +13 +13 1025.8 1025.2
01 21.06 штиль 0 н/о н/о +16.5 +17 +17 1025.9 1025.3
02 21.06 штиль 0 н/о н/о +13.5 +14 +14 1026.0 1025.4
03 21.06 штиль 0 н/о н/о +13.3 +14 +14 1026.1 1025.5
04 21.06 штиль 0 н/о н/о +15.4 +16 +16 1025.5 1024.9
05 21.06 штиль 0
{2}
н/о н/о +15.4 +16 +16 1025.4 1024.8
06 21.06 штиль 0
{3}
н/о н/о +15.7 +16 +16 1024.7 1024.1
07 21.06 СВ 1
{4}
н/о н/о +16.5 +18 +18 1024.6 1024.0
08 21.06 С 2
{5}
н/о н/о +16.3 +17 +17 1023.9 1023.3
09 21.06 штиль 0
{5}
н/о н/о +15.7 +16 +16 1024.4 1023.8
10 21.06 штиль 0
{4}
н/о н/о +15.6 +16 +16 1024.7 1024.1
11 21.06 штиль 0
{4}
н/о н/о +16.6 +17 +17 1025.1 1024.5
12 21.06 штиль 0
{4}
н/о н/о +18.3 +18 +18 1025.7 1025.2
13 21.06 СВ 4
{7}
н/о н/о +19.0 +18 +18 1025.7 1025.2
14 21.06 СВ 4
{7}
н/о н/о +20.0 +19 +19 1025.2 1024.7
15 21.06 СВ 4
{6}
н/о н/о +20.2 +19 +19 1024.6 1024.1
16 21.06 СВ 3
{6}
н/о н/о +20.3 +19 +19 1023.7 1023.2
17 21.06 СВ 3
{6}
н/о н/о +20.3 +19 +19 1023.4 1022.9
18 21.06 СВ 3
{5}
н/о н/о +20.1 +19 +19 1023.4 1022.9
19 21.06 СВ 3
{5}
н/о н/о +19.4 +19 +19 1023.5 1023.0
20 21.06 СВ 3
{5}
н/о н/о +19.2 +19 +19 1023.6 1023.1
21 21.06 СВ 3
{5}
н/о н/о +18.9 +19 +19 1023.7 1023.2
22 21.06 СВ 2
{5}
н/о н/о +18.9 +19 +19 1023.8 1023.3
23 21.06 СВ 1
{4}
н/о н/о +19.0 +20 +20 1023.9 1023.4
00 22.06 штиль 0
{4}
н/о н/о +18.7 +18 +18 1023.7 1023.2
01 22.06 штиль 0
{2}
н/о н/о +18.3 +18 +18 1023.7 1023.2
02 22.06 штиль 0
{3}
н/о н/о +17.7 +18 +18 1024.0 1023.5
03 22.06 СВ 1
{3}
н/о н/о +17.8 +19 +19 1023.7 1023.2
04 22.06 штиль 0
{3}
н/о н/о +17.3 +17 +17 1023.6 1023.1
05 22.06 штиль 0 н/о н/о +17.4 +17 +17 1023.3 1022.8
06 22.06 штиль 0 н/о н/о +16.5 +17 +17 1023.3 1022.7
07 22.06 штиль 0 н/о н/о +16.5 +17 +17 1023.3 1022.7
08 22.06 штиль 0 н/о н/о +15.5 +16 +16 1023.0 1022.4
09 22.06 штиль 0 н/о н/о +15.6 +16 +16 1023.2 1022.6
10 22.06 штиль 0 н/о н/о +15.0 +15 +15 1023.6 1023.0
11 22.06 штиль 0 н/о н/о +15.6 +16 +16 1024.0 1023.4
12 22.06 штиль 0 н/о н/о +18.1 +18 +18 1023.9 1023.4
13 22.06 штиль 0 н/о н/о +21.0 +19 +19 1023.9 1023.4
14 22.06 штиль 0 н/о н/о +21.0 +19 +19 1023.6 1023.1
15 22.06 штиль 0
{2}
н/о н/о +21.7 +19 +19 1023.0 1022.5
16 22.06 штиль 0
{2}
н/о н/о +22.0 +19 +19 1022.1 1021.6
17 22.06 штиль 0
{2}
н/о н/о +22.5 +19 +19 1021.2 1020.7
18 22.06 штиль 0
{3}
н/о н/о +22.4 +19 +19 1020.9 1020.4
19 22.06 штиль 0 н/о н/о +22.4 +19 +19 1020.6 1020.1
20 22.06 штиль 0 н/о н/о +21.3 +19 +19 1020.4 1019.9
21 22.06 штиль 0 н/о н/о +20.4 +19 +19 1020.7 1020.2
22 22.06 штиль 0 н/о н/о +19.8 +19 +19 1020.9 1020.4
23 22.06 штиль 0 н/о н/о +20.0 +19 +19 1021.4 1020.9
00 23.06 штиль 0 н/о н/о +19.8 +19 +19 1021.5 1021.0
01 23.06 штиль 0 н/о н/о +19.7 +19 +19 1021.8 1021.3
02 23.06 штиль 0 н/о н/о +19.6 +19 +19 1021.8 1021.3
03 23.06 штиль 0 н/о н/о +19.2 +18 +18 1021.7 1021.2
04 23.06 штиль 0 н/о н/о +18.6 +18 +18 1021.1 1020.6
05 23.06 штиль 0 н/о н/о +18.7 +18 +18 1020.6 1020.1
06 23.06 штиль 0 н/о н/о +18.9 +18 +18 1020.1 1019.6
07 23.06 штиль 0 н/о н/о +19.6 +19 +19 1019.6 1019.1
08 23.06 штиль 0
{2}
н/о н/о +17.7 +18 +18 1019.4 1018.9
09 23.06 штиль 0
{2}
н/о н/о +16.4 +17 +17 1019.7 1019.2
10 23.06 штиль 0 н/о н/о +16.1 +16 +16 1019.6 1019.1
11 23.06 штиль 0 н/о н/о +16.5 +17 +17 1019.5 1019.0
12 23.06 штиль 0 н/о н/о +20.9 +19 +19 1019.5 1019.0
13 23.06 штиль 0 н/о н/о +24.1 +20 +20 1019.5 1019.0
14 23.06 штиль 0 н/о н/о +26.1 +22 +22 комфорт 1019.0 1018.5
15 23.06 штиль 0
{3}
н/о н/о +28.0 +23 +23 комфорт 1017.9 1017.4
16 23.06 штиль 0
{5}
н/о н/о +28.0 +23 +23 комфорт 1016.6 1016.1
17 23.06 штиль 0
{5}
н/о н/о +28.7 +24 +24 комфорт 1015.4 1014.9
18 23.06 штиль 0
{4}
н/о н/о +28.0 +23 +23 комфорт 1014.6 1014.1
19 23.06 штиль 0
{4}
н/о н/о +27.3 +23 +23 комфорт 1014.4 1013.9
20 23.06 штиль 0 н/о н/о +25.4 +21 +21 комфорт 1014.2 1013.7
21 23.06 штиль 0 н/о н/о +21.7 +19 +19 1014.1 1013.6
22 23.06 штиль 0 н/о н/о +20.5 +19 +19 1014.0 1013.5
23 23.06 штиль 0 н/о н/о +20.0 +19 +19 1014.0 1013.5
00 24.06 штиль 0
{1}
н/о н/о +20.0 +19 +19 1014.0 1013.5
01 24.06 штиль 0
{2}
н/о н/о +19.3 +18 +18 1013.8 1013.3
02 24.06 штиль 0 н/о н/о +19.7 +19 +19 1013.7 1013.2
04 24.06 штиль 0 н/о н/о +20.1 +19 +19 1012.6 1012.1
05 24.06 штиль 0 н/о н/о +18.6 +18 +18 1012.3 1011.8
06 24.06 штиль 0 н/о н/о +20.1 +19 +19 1011.9 1011.4
07 24.06 штиль 0 н/о н/о +19.3 +18 +18 1011.6 1011.1
08 24.06 штиль 0 н/о н/о +19.0 +18 +18 1011.4 1010.9
09 24.06 штиль 0 н/о н/о +19.5 +19 +19 1011.9 1011.4
10 24.06 штиль 0 н/о н/о +21.0 +19 +19 1012.0 1011.5
11 24.06 штиль 0
{3}
н/о н/о +22.1 +19 +19 1012.4 1011.9
12 24.06 штиль 0
{1}
н/о н/о +24.3 +20 +20 1012.4 1011.9
13 24.06 штиль 0
{3}
н/о н/о +27.0 +22 +22 комфорт 1012.5 1012.0
14 24.06 штиль 0
{3}
н/о н/о +27.5 +23 +23 комфорт 1012.1 1011.6
15 24.06 штиль 0
{2}
н/о н/о +28.5 +24 +24 комфорт 1010.9 1010.4
16 24.06 штиль 0
{3}
н/о н/о +29.4 +24 +24 комфорт 1010.0 1009.5
17 24.06 штиль 0 н/о н/о +29.4 +24 +24 комфорт 1008.9 1008.4

 

Местоположение метеостанции Трамандаи (Риу-Гранди-ду-Сул, Бразилия): широта -30.01 долгота -50.14 высота над уровнем моря 3 м.

В архиве по умолчанию представлена погода в Трамандаи за последнюю неделю. Архивные данные за месяц целиком и за предыдущие месяцы, начиная с января 2011 года, Вы можете получить, выбрав интересующий диапазон дат из раскрывающегося списка и нажав кнопку "Ввод!".


*Определитесь, кто Вы:
робот инопланетянин человек

Внимание! Время в таблицах - всемирное. Для получения местного времени необходимо прибавить поправку, которая равна -3 ч.

Смотрите также архив погоды в соседних городах и на ближайших метеорологических станциях:

Погода в Торресе (Санта-Катарина, Бразилия) (83 км)
Погода в Торресе (Санта-Катарина, Бразилия) (85 км)
Погода в Кампу-Боне (Риу-Гранди-ду-Сул, Бразилия) (96 км)
Погода в Канеле (Риу-Гранди-ду-Сул, Бразилия) (98 км)
Погода в Порту-Алегри (Риу-Гранди-ду-Сул, Бразилия) (99 км)
Погода в Порту-Алегри (Риу-Гранди-ду-Сул, Бразилия) (100 км)
Погода в Арарангуе (Санта-Катарина, Бразилия) (135 км)
Погода в Сан-Хосе-дос-Аусенте (Риу-Гранди-ду-Сул, Бразилия) (140 км)
Погода в Бон-Жезусе (Риу-Гранди-ду-Сул, Бразилия) (153 км)
Погода в Мостардасе (Риу-Гранди-ду-Сул, Бразилия) (156 км)

Пояснения к столбцам:

Ветер - указаны скорость ветра в м/с - средняя за 10 мин, порывы в срок и между сроками (в фигурных скобках) и направление, откуда дует ветер: С - северный, СВ - северо-восточный, В - восточный, ЮВ - юго-восточный, Ю - южный, ЮЗ - юго-западный, З - западный, СЗ - северо-западный.
Видимость - горизонтальная дальность видимости в метрах или километрах. При видимости от 1 до 10 км при отсутствии осадков обычно наблюдается дымка, при ухудшении видимости до 1 км и менее - туман. В сухую погоду видимость может ухудшаться дымом, пылью или мглою.
Явления - указаны атмосферные явления, наблюдавшиеся в срок или в последний час перед сроком; фигурными скобками обозначены явления, наблюдавшиеся между сроками (за 1-3 часа до срока); квадратными скобками обозначены град или гололедные отложения с указанием их диаметра в мм.
Облачность - указаны через наклонную черту общая и нижняя облачность в баллах и высота нижней границы облаков в метрах; квадратными скобками обозначены формы облаков: Ci - перистые, Cs - перисто-слоистые, Cc - перисто-кучевые, Ac - высококучевые, As - высокослоистые, Sc - слоисто-кучевые, Ns - слоисто-дождевые, Cu - кучевые, Cb - кучево-дождевые. Подробнее классификацию облаков см. в Атласе облаков (PDF).
T - Температура воздуха - температура, измеренная на высоте 2 м над землей.
Td - Температура точки росы - температура, при понижении до которой содержащийся в воздухе водяной пар достигнет насыщения.
f - Относительная влажность воздуха - влажноcть воздуха, измеренная на высоте 2 м над землей.
Te - Эффективная температура - температура, которую ощущает одетый по сезону человек в тени. Характеристика душности погоды. При расчете учитывается влияние влажности воздуха и скорости ветра на теплоощущения человека.
Tes - Эффективная температура на солнце - температура, которую ощущает человек, с поправкой на солнечный нагрев. Характеристика знойности погоды. Зависит от высоты солнца над горизонтом, облачности и скорости ветра. Ночью, в пасмурную погоду, а также при ветре 12 м/с и более поправка равна нулю.
P - Атмосферное давление - приведенное к уровню моря атмосферное давление.
Po - Атмосферное давление - измеренное на уровне метеостанции атмосферное давление.
Tmin - Минимальная температура - минимум температуры воздуха на высоте 2 м над землей.
Tmax - Максимальная температура - максимум температуры воздуха на высоте 2 м над землей.
R - Количество осадков - Количество выпавших осадков за период времени, мм. При наведении курсора мыши на число - период времени, за который выпало указанное количество осадков.
R24 - Количество осадков - Количество выпавших осадков за 24 часа, мм.
S - Снежный покров - Высота снежного покрова, см. При наведении курсора мыши на число - состояние снежного покрова и степень покрытия местности в баллах.